Time,TemperatureF,DewpointF,PressureIn,WindDirection,WindDirectionDegrees,WindSpeedMPH,WindSpeedGustMPH,Humidity,HourlyPrecipIn,Conditions,Clouds,dailyrainin,SoftwareType,DateUTC
2013-01-28 00:04:00,28.0,-99.9,30.73,SSE,167,9.0,18.0,-999,-99.99,,,-99.99,,2013-01-28 05:04:00,
2013-01-28 00:12:00,28.0,-99.9,30.03,SSE,167,9.0,18.0,-999,-99.99,,,-99.99,,2013-01-28 05:12:00,
2013-01-28 00:22:00,28.0,-99.9,30.03,SSE,167,9.0,18.0,-999,-99.99,,,-99.99,,2013-01-28 05:22:00,
2013-01-28 00:32:00,28.0,-99.9,30.04,SSE,166,5.0,21.0,-999,-99.99,,,-99.99,,2013-01-28 05:32:00,
2013-01-28 00:42:00,28.0,-99.9,30.04,SSE,166,5.0,21.0,-999,-99.99,,,-99.99,,2013-01-28 05:42:00,
2013-01-28 00:52:00,28.0,-99.9,30.71,South,171,9.0,22.0,-999,-99.99,,,-99.99,,2013-01-28 05:52:00,
2013-01-28 01:02:00,29.0,-99.9,30.01,SSE,160,5.0,16.0,-999,-99.99,,,-99.99,,2013-01-28 06:02:00,
2013-01-28 01:12:00,29.0,-99.9,30.01,SSE,160,5.0,16.0,-999,-99.99,,,-99.99,,2013-01-28 06:12:00,
2013-01-28 01:22:00,28.0,-99.9,30.71,South,171,9.0,22.0,-999,-99.99,,,-99.99,,2013-01-28 06:22:00,
2013-01-28 01:33:00,28.0,-99.9,30.01,South,171,9.0,22.0,-999,-99.99,,,-99.99,,2013-01-28 06:33:00,
2013-01-28 01:42:00,28.0,-99.9,30.01,South,171,9.0,22.0,-999,-99.99,,,-99.99,,2013-01-28 06:42:00,
2013-01-28 01:52:00,29.0,-99.9,30.69,SSE,166,9.0,22.0,-999,-99.99,,,-99.99,,2013-01-28 06:52:00,
2013-01-28 02:03:00,28.0,-99.9,30.68,SSE,168,7.0,15.0,-999,-99.99,,,-99.99,,2013-01-28 07:03:00,
2013-01-28 02:11:00,28.0,-99.9,29.98,SSE,168,7.0,15.0,-999,-99.99,,,-99.99,,2013-01-28 07:11:00,
2013-01-28 02:22:00,28.0,-99.9,29.98,SSE,168,7.0,15.0,-999,-99.99,,,-99.99,,2013-01-28 07:22:00,
2013-01-28 02:32:00,29.0,-99.9,30.69,SSE,166,9.0,22.0,-999,-99.99,,,-99.99,,2013-01-28 07:32:00,
2013-01-28 02:42:00,29.0,-99.9,30.66,SSE,154,9.0,19.0,-999,-99.99,,,-99.99,,2013-01-28 07:42:00,
2013-01-28 02:52:00,29.0,-99.9,30.66,SSE,154,9.0,19.0,-999,-99.99,,,-99.99,,2013-01-28 07:52:00,
2013-01-28 03:01:00,29.0,-99.9,29.96,SSE,165,8.0,16.0,-999,-99.99,,,-99.99,,2013-01-28 08:01:00,
2013-01-28 03:11:00,29.0,-99.9,29.95,SSE,165,8.0,16.0,-999,-99.99,,,-99.99,,2013-01-28 08:11:00,
2013-01-28 03:21:00,29.0,-99.9,30.66,SSE,154,9.0,19.0,-999,-99.99,,,-99.99,,2013-01-28 08:21:00,
2013-01-28 03:32:00,29.0,-99.9,29.96,SSE,154,9.0,19.0,-999,-99.99,,,-99.99,,2013-01-28 08:32:00,
2013-01-28 03:42:00,29.0,-99.9,29.96,SSE,154,9.0,19.0,-999,-99.99,,,-99.99,,2013-01-28 08:42:00,
2013-01-28 03:53:00,30.0,-99.9,30.63,SSE,160,4.0,17.0,-999,-99.99,,,-99.99,,2013-01-28 08:53:00,
2013-01-28 04:02:00,30.0,-99.9,30.62,SSE,153,5.0,12.0,-999,-99.99,,,-99.99,,2013-01-28 09:02:00,
2013-01-28 04:12:00,30.0,-99.9,29.92,SSE,153,5.0,12.0,-999,-99.99,,,-99.99,,2013-01-28 09:12:00,
2013-01-28 04:22:00,30.0,-99.9,30.63,SSE,160,4.0,17.0,-999,-99.99,,,-99.99,,2013-01-28 09:22:00,
2013-01-28 04:33:00,30.0,-99.9,29.93,SSE,160,4.0,17.0,-999,-99.99,,,-99.99,,2013-01-28 09:33:00,
2013-01-28 04:42:00,30.0,-99.9,29.93,SSE,160,4.0,17.0,-999,-99.99,,,-99.99,,2013-01-28 09:42:00,
2013-01-28 04:52:00,30.0,-99.9,29.93,SSE,160,4.0,17.0,-999,-99.99,,,-99.99,,2013-01-28 09:52:00,
2013-01-28 05:02:00,29.0,-99.9,30.60,SSE,153,6.0,11.0,-999,-99.99,,,-99.99,,2013-01-28 10:02:00,
2013-01-28 05:11:00,29.0,-99.9,29.90,SSE,153,6.0,11.0,-999,-99.99,,,-99.99,,2013-01-28 10:11:00,
2013-01-28 05:21:00,29.0,-99.9,30.60,SSE,150,5.0,13.0,-999,-99.99,,,-99.99,,2013-01-28 10:21:00,
2013-01-28 05:32:00,29.0,-99.9,30.60,SSE,150,5.0,13.0,-999,-99.99,,,-99.99,,2013-01-28 10:32:00,
2013-01-28 05:42:00,29.0,-99.9,30.60,SSE,150,5.0,13.0,-999,-99.99,,,-99.99,,2013-01-28 10:42:00,
2013-01-28 05:52:00,29.0,-99.9,30.60,SSE,150,5.0,13.0,-999,-99.99,,,-99.99,,2013-01-28 10:52:00,
2013-01-28 06:02:00,30.0,-99.9,29.90,SE,143,6.0,10.0,-999,-99.99,,,-99.99,,2013-01-28 11:02:00,
2013-01-28 06:11:00,30.0,-99.9,29.86,SE,143,6.0,10.0,-999,-99.99,,,-99.99,,2013-01-28 11:11:00,
2013-01-28 06:22:00,30.0,-99.9,30.55,SSE,154,4.0,12.0,-999,-99.99,,,-99.99,,2013-01-28 11:22:00,
2013-01-28 06:33:00,30.0,-99.9,29.86,SSE,154,4.0,12.0,-999,-99.99,,,-99.99,,2013-01-28 11:33:00,
2013-01-28 06:42:00,30.0,-99.9,30.55,SSE,154,4.0,12.0,-999,-99.99,,,-99.99,,2013-01-28 11:42:00,
2013-01-28 06:53:00,30.0,-99.9,29.86,SSE,154,4.0,12.0,-999,-99.99,,,-99.99,,2013-01-28 11:53:00,
2013-01-28 07:03:00,30.0,-99.9,30.54,SE,140,4.0,8.0,-999,-99.99,,,-99.99,,2013-01-28 12:03:00,
2013-01-28 07:12:00,30.0,-99.9,29.85,SE,140,4.0,8.0,-999,-99.99,,,-99.99,,2013-01-28 12:12:00,
2013-01-28 07:23:00,30.0,-99.9,29.85,SE,140,4.0,8.0,-999,-99.99,,,-99.99,,2013-01-28 12:23:00,
2013-01-28 07:33:00,30.0,-99.9,29.85,SE,130,4.0,10.0,-999,-99.99,,,-99.99,,2013-01-28 12:33:00,
2013-01-28 07:43:00,30.0,-99.9,29.85,SE,130,4.0,10.0,-999,-99.99,,,-99.99,,2013-01-28 12:43:00,
2013-01-28 07:53:00,30.0,-99.9,30.54,SE,130,4.0,10.0,-999,-99.99,,,-99.99,,2013-01-28 12:53:00,
2013-01-28 08:03:00,31.0,-99.9,30.53,ESE,119,2.0,7.0,-999,-99.99,,,-99.99,,2013-01-28 13:03:00,
2013-01-28 08:12:00,31.0,-99.9,29.84,ESE,119,2.0,7.0,-999,-99.99,,,-99.99,,2013-01-28 13:12:00,
2013-01-28 08:23:00,31.0,-99.9,29.84,ESE,119,2.0,7.0,-999,-99.99,,,-99.99,,2013-01-28 13:23:00,
2013-01-28 08:33:00,31.0,-99.9,29.83,ESE,106,2.0,8.0,-999,-99.99,,,-99.99,,2013-01-28 13:33:00,
2013-01-28 08:40:00,31.0,-99.9,29.83,ESE,107,2.0,5.0,-999,-99.99,,,-99.99,,2013-01-28 13:40:00,
2013-01-28 08:43:00,31.0,-99.9,29.83,ESE,106,2.0,8.0,-999,-99.99,,,-99.99,,2013-01-28 13:43:00,
2013-01-28 08:53:00,31.0,-99.9,30.52,ESE,106,2.0,8.0,-999,-99.99,,,-99.99,,2013-01-28 13:53:00,
2013-01-28 09:03:00,31.0,-99.9,30.52,ESE,107,2.0,5.0,-999,-99.99,,,-99.99,,2013-01-28 14:03:00,
2013-01-28 09:12:00,31.0,-99.9,29.83,ESE,107,2.0,5.0,-999,-99.99,,,-99.99,,2013-01-28 14:12:00,
2013-01-28 09:23:00,31.0,-99.9,29.83,ESE,107,2.0,5.0,-999,-99.99,,,-99.99,,2013-01-28 14:23:00,
2013-01-28 09:33:00,31.0,-99.9,29.83,ESE,107,2.0,5.0,-999,-99.99,,,-99.99,,2013-01-28 14:33:00,
2013-01-28 10:03:00,31.0,-99.9,30.51,SE,144,2.0,4.0,-999,-99.99,,,-99.99,,2013-01-28 15:03:00,
2013-01-28 10:13:00,31.0,-99.9,29.82,SE,144,2.0,4.0,-999,-99.99,,,-99.99,,2013-01-28 15:13:00,
2013-01-28 10:24:00,31.0,-99.9,30.52,SE,134,2.0,7.0,-999,-99.99,,,-99.99,,2013-01-28 15:24:00,
2013-01-28 10:33:00,31.0,-99.9,29.83,SE,134,2.0,7.0,-999,-99.99,,,-99.99,,2013-01-28 15:33:00,
2013-01-28 10:40:00,32.0,-99.9,29.83,ESE,107,2.0,4.0,-999,-99.99,,,-99.99,,2013-01-28 15:40:00,
2013-01-28 10:43:00,32.0,-99.9,29.83,ESE,115,2.0,5.0,-999,-99.99,,,-99.99,,2013-01-28 15:43:00,
2013-01-28 10:54:00,32.0,-99.9,30.52,ESE,115,2.0,5.0,-999,-99.99,,,-99.99,,2013-01-28 15:54:00,
2013-01-28 11:04:00,32.0,-99.9,30.52,ESE,107,2.0,4.0,-999,-99.99,,,-99.99,,2013-01-28 16:04:00,
2013-01-28 11:13:00,32.0,-99.9,29.83,ESE,107,2.0,4.0,-999,-99.99,,,-99.99,,2013-01-28 16:13:00,
2013-01-28 11:22:00,32.0,-99.9,29.83,ESE,107,2.0,4.0,-999,-99.99,,,-99.99,,2013-01-28 16:22:00,
2013-01-28 11:33:00,32.0,-99.9,29.83,ESE,107,2.0,4.0,-999,-99.99,,,-99.99,,2013-01-28 16:33:00,
2013-01-28 11:40:00,32.0,-99.9,29.85,NE,42,5.0,5.0,-999,-99.99,,,-99.99,,2013-01-28 16:40:00,
2013-01-28 12:02:00,32.0,-99.9,30.54,NE,42,5.0,5.0,-999,-99.99,,,-99.99,,2013-01-28 17:02:00,
2013-01-28 12:12:00,32.0,-99.9,29.85,NE,42,5.0,5.0,-999,-99.99,,,-99.99,,2013-01-28 17:12:00,
2013-01-28 12:23:00,32.0,-99.9,29.85,NE,42,5.0,5.0,-999,-99.99,,,-99.99,,2013-01-28 17:23:00,
2013-01-28 12:33:00,32.0,-99.9,29.85,NE,42,5.0,5.0,-999,-99.99,,,-99.99,,2013-01-28 17:33:00,
2013-01-28 12:40:00,32.0,-99.9,29.85,NE,51,2.0,3.0,-999,-99.99,,,-99.99,,2013-01-28 17:40:00,
2013-01-28 13:03:00,32.0,-99.9,30.54,NE,51,2.0,3.0,-999,-99.99,,,-99.99,,2013-01-28 18:03:00,
2013-01-28 13:13:00,32.0,-99.9,29.85,NE,51,2.0,3.0,-999,-99.99,,,-99.99,,2013-01-28 18:13:00,
2013-01-28 13:23:00,32.0,-99.9,29.85,NE,51,2.0,3.0,-999,-99.99,,,-99.99,,2013-01-28 18:23:00,
2013-01-28 13:33:00,32.0,-99.9,29.85,NE,51,2.0,3.0,-999,-99.99,,,-99.99,,2013-01-28 18:33:00,
2013-01-28 13:40:00,32.0,-99.9,29.85,North,8,8.0,9.0,-999,-99.99,,,-99.99,,2013-01-28 18:40:00,
2013-01-28 14:03:00,32.0,-99.9,30.54,North,8,8.0,9.0,-999,-99.99,,,-99.99,,2013-01-28 19:03:00,
2013-01-28 14:13:00,32.0,-99.9,29.85,North,8,8.0,9.0,-999,-99.99,,,-99.99,,2013-01-28 19:13:00,
2013-01-28 14:23:00,32.0,-99.9,29.85,North,8,8.0,9.0,-999,-99.99,,,-99.99,,2013-01-28 19:23:00,
2013-01-28 14:33:00,32.0,-99.9,29.85,North,8,8.0,9.0,-999,-99.99,,,-99.99,,2013-01-28 19:33:00,
2013-01-28 14:40:00,33.0,-99.9,29.86,North,358,10.0,11.0,-999,-99.99,,,-99.99,,2013-01-28 19:40:00,
2013-01-28 15:03:00,33.0,-99.9,30.55,North,358,10.0,11.0,-999,-99.99,,,-99.99,,2013-01-28 20:03:00,
2013-01-28 15:12:00,33.0,-99.9,29.86,North,358,10.0,11.0,-999,-99.99,,,-99.99,,2013-01-28 20:12:00,
2013-01-28 15:22:00,33.0,-99.9,29.86,North,358,10.0,11.0,-999,-99.99,,,-99.99,,2013-01-28 20:22:00,
2013-01-28 15:33:00,33.0,-99.9,29.86,North,358,10.0,11.0,-999,-99.99,,,-99.99,,2013-01-28 20:33:00,
2013-01-28 16:03:00,33.0,-99.9,30.60,North,349,10.0,13.0,-999,-99.99,,,-99.99,,2013-01-28 21:03:00,
2013-01-28 16:12:00,33.0,-99.9,29.90,North,349,10.0,13.0,-999,-99.99,,,-99.99,,2013-01-28 21:12:00,
2013-01-28 16:23:00,33.0,-99.9,29.90,North,349,10.0,13.0,-999,-99.99,,,-99.99,,2013-01-28 21:23:00,
2013-01-28 16:34:00,33.0,-99.9,30.60,North,349,10.0,13.0,-999,-99.99,,,-99.99,,2013-01-28 21:34:00,
2013-01-28 16:40:00,33.0,-99.9,29.92,North,357,7.0,11.0,-999,-99.99,,,-99.99,,2013-01-28 21:40:00,
2013-01-28 16:43:00,33.0,-99.9,29.90,North,349,10.0,13.0,-999,-99.99,,,-99.99,,2013-01-28 21:43:00,
2013-01-28 16:53:00,33.0,-99.9,30.60,North,349,10.0,13.0,-999,-99.99,,,-99.99,,2013-01-28 21:53:00,
2013-01-28 17:02:00,33.0,-99.9,30.62,North,357,7.0,11.0,-999,-99.99,,,-99.99,,2013-01-28 22:02:00,
2013-01-28 17:12:00,33.0,-99.9,29.92,North,357,7.0,11.0,-999,-99.99,,,-99.99,,2013-01-28 22:12:00,
2013-01-28 17:23:00,33.0,-99.9,29.92,North,357,7.0,11.0,-999,-99.99,,,-99.99,,2013-01-28 22:23:00,
2013-01-28 17:33:00,33.0,-99.9,29.92,North,357,7.0,11.0,-999,-99.99,,,-99.99,,2013-01-28 22:33:00,
2013-01-28 17:40:00,33.0,-99.9,29.95,North,3,9.0,10.0,-999,-99.99,,,-99.99,,2013-01-28 22:40:00,
2013-01-28 18:03:00,33.0,-99.9,30.65,North,3,9.0,10.0,-999,-99.99,,,-99.99,,2013-01-28 23:03:00,
2013-01-28 18:12:00,33.0,-99.9,29.95,North,3,9.0,10.0,-999,-99.99,,,-99.99,,2013-01-28 23:12:00,
2013-01-28 18:22:00,33.0,-99.9,29.95,North,3,9.0,10.0,-999,-99.99,,,-99.99,,2013-01-28 23:22:00,
2013-01-28 18:33:00,33.0,-99.9,29.95,North,3,9.0,10.0,-999,-99.99,,,-99.99,,2013-01-28 23:33:00,
2013-01-28 19:03:00,32.0,-99.9,30.66,ENE,58,6.0,9.0,-999,-99.99,,,-99.99,,2013-01-29 00:03:00,
2013-01-28 19:12:00,32.0,-99.9,29.96,ENE,58,6.0,9.0,-999,-99.99,,,-99.99,,2013-01-29 00:12:00,
2013-01-28 19:22:00,32.0,-99.9,29.96,ENE,58,6.0,9.0,-999,-99.99,,,-99.99,,2013-01-29 00:22:00,
2013-01-28 19:33:00,32.0,-99.9,29.96,ENE,58,6.0,9.0,-999,-99.99,,,-99.99,,2013-01-29 00:33:00,
2013-01-28 19:40:00,32.0,-99.9,30.00,SE,139,2.0,4.0,-999,-99.99,,,-99.99,,2013-01-29 00:40:00,
2013-01-28 19:42:00,32.0,-99.9,30.68,SSE,159,1.0,12.0,-999,-99.99,,,-99.99,,2013-01-29 00:42:00,
2013-01-28 19:52:00,32.0,-99.9,29.98,SSE,159,1.0,12.0,-999,-99.99,,,-99.99,,2013-01-29 00:52:00,
2013-01-28 20:02:00,32.0,-99.9,30.70,SE,139,2.0,4.0,-999,-99.99,,,-99.99,,2013-01-29 01:02:00,
2013-01-28 20:12:00,32.0,-99.9,30.00,SE,139,2.0,4.0,-999,-99.99,,,-99.99,,2013-01-29 01:12:00,
2013-01-28 20:23:00,32.0,-99.9,30.00,SE,139,2.0,4.0,-999,-99.99,,,-99.99,,2013-01-29 01:23:00,
2013-01-28 20:32:00,32.0,-99.9,30.00,SE,139,2.0,4.0,-999,-99.99,,,-99.99,,2013-01-29 01:32:00,
2013-01-28 20:40:00,32.0,-99.9,29.99,SE,133,3.0,4.0,-999,-99.99,,,-99.99,,2013-01-29 01:40:00,
2013-01-28 21:02:00,32.0,-99.9,30.69,SE,133,3.0,4.0,-999,-99.99,,,-99.99,,2013-01-29 02:02:00,
2013-01-28 21:12:00,32.0,-99.9,29.99,SE,133,3.0,4.0,-999,-99.99,,,-99.99,,2013-01-29 02:12:00,
2013-01-28 21:22:00,32.0,-99.9,29.99,SE,133,3.0,4.0,-999,-99.99,,,-99.99,,2013-01-29 02:22:00,
2013-01-28 21:33:00,32.0,-99.9,29.99,SE,133,3.0,4.0,-999,-99.99,,,-99.99,,2013-01-29 02:33:00,
2013-01-28 21:40:00,32.0,-99.9,29.98,ESE,117,3.0,6.0,-999,-99.99,,,-99.99,,2013-01-29 02:40:00,
2013-01-28 22:03:00,32.0,-99.9,30.68,ESE,117,3.0,6.0,-999,-99.99,,,-99.99,,2013-01-29 03:03:00,
2013-01-28 22:12:00,32.0,-99.9,29.98,ESE,117,3.0,6.0,-999,-99.99,,,-99.99,,2013-01-29 03:12:00,
2013-01-28 22:22:00,32.0,-99.9,29.98,ESE,117,3.0,6.0,-999,-99.99,,,-99.99,,2013-01-29 03:22:00,
2013-01-28 22:32:00,32.0,-99.9,29.98,ESE,117,3.0,6.0,-999,-99.99,,,-99.99,,2013-01-29 03:32:00,
2013-01-28 22:40:00,31.0,-99.9,29.99,SE,129,5.0,8.0,-999,-99.99,,,-99.99,,2013-01-29 03:40:00,
2013-01-28 23:03:00,31.0,-99.9,30.69,SE,129,5.0,8.0,-999,-99.99,,,-99.99,,2013-01-29 04:03:00,
2013-01-28 23:12:00,31.0,-99.9,29.99,SE,129,5.0,8.0,-999,-99.99,,,-99.99,,2013-01-29 04:12:00,
2013-01-28 23:22:00,31.0,-99.9,29.99,SE,129,5.0,8.0,-999,-99.99,,,-99.99,,2013-01-29 04:22:00,
2013-01-28 23:32:00,31.0,-99.9,29.99,SE,129,5.0,8.0,-999,-99.99,,,-99.99,,2013-01-29 04:32:00,